Showing default

COSMOS 83, 1573

Orbit data source: Space-Track

COSMOS 83, 1573 is a payload satellite owned by OKB-10 (CIS) in LEO that was launched on Fri, 03 Sep 1965 UTC via a KOSMOS 65S3 launch vehicle from the Tyuratam Missile And Space Complex (TTMTR). Payloads include a variety of satellites, spacecraft, and rockets equipped with specific instruments for various scientific and technological missions. These include communications satellites like Starlink; space stations such as the ISS; scientific satellites like the Hubble; Earth observation satellites from companies like Planet Labs, Umbra, and HawkEye 360; GPS; miniature CubeSats for education and research; and military/defense satellites.

Loading next visibility...
COSMOS 83 details
Identifier
1573, 1965-070D
Orbit
LEO
Last TLE update11 hours ago
Origin
Flag of CISOKB-10 (CIS)
ManufacturerOKB-10
MissionDefense Communications
Bus & MotorSTRELA-1 11F610, Unknown motor
Mass50 kg wet, 50 kg dry
Launch date (UTC)
1965-09-03 (59 years ago)
Launch vehicle
KOSMOS 65S3
Launch site
Tyuratam Missile And Space Complex (TTMTR)
Object type
Payload
Rocket body
Debris
Shape & HBRPoly, 0.8 m
Radar Cross Section0.731 m², Medium (>0.1 m² and < 1m²)

Expand to show TLE details & history

TLE from 11 hours ago
0 COSMOS 83
1 01573U 65070D   25037.58771837 -.00000073  00000-0  15073-3 0  9997
2 01573  56.0510 219.0012 0069034 137.4177 223.2106 12.41038535693682
Epoch: 2025-02-06T14:06Z
Definitive object data (Epoch: 2025-02-06T14:06:18.867Z)
Latitude-0.00002°
Longitude-129.53958°
Altitude1,543.078 km
Speed7.078 km/s
True Right ascension14h 36m 00s
True Declination0° 00' 00"
Sunlit
Object was in daylight at TLE epoch
Visualization TLE readout
Latitude-56.10806°
Longitude143.44907°
Altitude1,560.063 km
Speed7.071 km/s
Apparent Right ascension12h 18m 40s
Apparent Declination-60° 12' 49"
Sunlit
Object is in daylight
Visualization observer readout
Local Sidereal Time03:22:52
Azimuth141.175° SSE
Elevation-55.218°
Doppler factor1
Orbital elements
Apogee altitude1,556.429 km
Perigee altitude1,447.629 km
Semi-major axis7,880.166 km
Eccentricity0.0069034
Inclination56.051°
RAAN219.0012°
Arg. of periapsis137.4177°
True anomaly222.67236°
Mean anomaly223.2106°
Eccentric anomaly222.94114°
Mean motion3.1027 °/min
BSTAR0.00015073
Orbital period116.03 mins
Loading maneuver chart data...
Loading historical data...
Loading historical data...
Loading historical data...
Loading historical data...
Loading historical data...
Loading historical data...
Loading historical data...

COSMOS 83 Visibility forecast

Observer location: undefined°, undefined

Span
Click to sort rows by Start time (UTC) header in descending order
Start Az.
Max El. time (UTC)
Max El. Az.
Max El.
End time (UTC)
End Az.
17 mins2025-02-07 13:23:40.556Z196.954° SSW2025-02-07 13:32:40.556Z118.029° SE37.794°2025-02-07 13:40:40.556Z53.592° ENE
15 mins2025-02-07 15:26:40.556Z253.532° W2025-02-07 15:33:40.556Z325.858° NNW39.019°2025-02-07 15:41:40.556Z40.552° NE
13 mins2025-02-07 17:30:40.556Z299.643° NW2025-02-07 17:36:40.556Z348.377° N25.773°2025-02-07 17:43:40.556Z46.117° ENE
14 mins2025-02-07 19:34:40.556Z323.427° NNW2025-02-07 19:40:40.556Z16.524° NNE29.577°2025-02-07 19:48:40.556Z83.212° E
16 mins2025-02-07 21:35:40.556Z315.659° NNW2025-02-07 21:43:40.556Z78.787° E44.729°2025-02-07 21:51:40.556Z132.898° SE
11 mins2025-02-07 23:38:40.556Z285.884° WNW2025-02-07 23:43:40.556Z243.868° WSW23.693°2025-02-07 23:49:40.556Z195.346° SSW
|